Погода в Квитневом

Украина / Житомирская область     49°59′28″N   29°31′02″E
темп.,
°C
ветер,
м/с
пор.,
м/с
влажн.,
%
обл.,
%
осадки,
мм/ч
давл.,
гПа
погр.,
м
8 мая, сб
сб800:00+10ююз3595100 0.8 1007127
03:00+10зюз3695100 3.0 1006162
06:00+9сз3796100 1.4 1007304
09:00+5сз91493100 2.4 1011878
12:00+7зсз91288100 0.7 10121077
15:00+8зсз10137599 1.3 10141375
18:00+7сз7107656 0.3 10171092
21:00+5зсз37876 0.3 1019155
9 мая, вс
вс900:00+3зсз410930 0.0 1020243
03:00+2зсз39940 0.0 1022181
06:00+2зсз39920 0.0 1023185
09:00+8сз46685 0.0 1025555
12:00+12сз35515 0.0 10251680
15:00+13зсз3446100 0.0 10251943
18:00+13зсз345445 0.0 1025533
21:00+8сз11605 0.0 102710
10 мая, пн
пн1000:00+7ююв22635 0.0 102812
03:00+6ююв22711 0.0 102817
06:00+5ююв33735 0.0 102928
09:00+11ююв346051 0.0 1029350
12:00+15ююв44483 0.0 10291476
15:00+16ююв45475 0.0 10271590
18:00+16юв34550 0.0 10271445
21:00+10вюв46730 0.0 102770
11 мая, вт
вт1100:00+8юв38710 0.0 1028125
03:00+6юв35770 0.0 102875
06:00+6вюв22780 0.0 102729
09:00+12в35620 0.0 1027410
12:00+16всв56470 0.0 10251128
15:00+18всв45422 0.0 10231287
18:00+17всв46585 0.0 10221134
21:00+12всв38825 0.0 1022137
12 мая, ср
ср1200:00+10всв310944 0.0 1021237
03:00+8в38950 0.0 1020192
06:00+7в35964 0.0 1019105
09:00+10всв248292 0.0 1018277
12:00+11св4579100 0.0 1017555
15:00+11в81182100 0.9 1015818
18:00+11в687314 0.3 10151055
21:00+8в598843 0.6 1014442